Location: Kelshall
(52.0000°N, 0.0500°W)
Time: 11:48:36
(UTC+00:00)

Cosmos 1937 Rocket - Pass Details

Date: 18 September 2020
Orbit: 747 x 779 km, 74.0° (Epoch: 21 October)

Event Time Altitude Azimuth Distance (km) Brightness Sun altitude
Rises 18:54:22 0° 191° (S) 3,234 6.7 -8.0°
Reaches altitude 10° 18:56:46 10° 188° (S) 2,307 5.9 -8.4°
Maximum altitude 19:01:54 60° 109° (ESE) 879 3.5 -9.2°
Drops below altitude 10° 19:07:02 10° 31° (NNE) 2,302 5.8 -9.9°
Sets 19:09:25 0° 28° (NNE) 3,227 6.6 -10.3°
